| time (UTC) | temp F | wind direction | speed MPH | gust MPH | rain 1hr in | rain 24hr in | rain mn in | humidity % | barometer mb |
| 20260903133635 | 81 | 151 | 2.0 | 6.0 | 0.00 | 0.00 | 0.00 | 84 | 1011.5 |
| 20260903133130 | 81 | 151 | 4.0 | 6.0 | 0.00 | 0.00 | 0.00 | 83 | 1011.4 |
| 20260903132625 | 80 | 130 | 3.0 | 6.0 | 0.00 | 0.00 | 0.00 | 84 | 1011.3 |
| 20260903132119 | 79 | 161 | 0.0 | 6.0 | 0.00 | 0.00 | 0.00 | 86 | 1011.4 |
| 20260903131614 | 79 | 138 | 1.0 | 5.0 | 0.00 | 0.00 | 0.00 | 86 | 1011.4 |
| 20260903131113 | 78 | 86 | 0.0 | 6.0 | 0.00 | 0.00 | 0.00 | 87 | 1011.2 |
| 20260903130609 | 78 | 102 | 2.0 | 4.0 | 0.00 | 0.00 | 0.00 | 88 | 1011.5 |
| 20260903130057 | 77 | 51 | 1.0 | 3.0 | 0.00 | 0.00 | 0.00 | 89 | 1011.4 |
| 20260903125555 | 77 | 32 | 0.0 | 2.0 | 0.00 | 0.00 | 0.00 | 90 | 1011.3 |
| 20260903125050 | 76 | 148 | 0.0 | 3.0 | 0.00 | 0.00 | 0.00 | 91 | 1011.2 |
| 20260903124545 | 76 | 60 | 1.0 | 3.0 | 0.00 | 0.00 | 0.00 | 91 | 1011.4 |
| 20260903124044 | 76 | 103 | 1.0 | 3.0 | 0.00 | 0.00 | 0.00 | 91 | 1011.3 |
| 20260903123544 | 76 | 112 | 0.0 | 4.0 | 0.00 | 0.00 | 0.00 | 91 | 1011.1 |
| 20260903123043 | 76 | 87 | 2.0 | 3.0 | 0.00 | 0.00 | 0.00 | 90 | 1011.1 |
| 20260903122543 | 76 | 87 | 0.0 | 2.0 | 0.00 | 0.00 | 0.00 | 90 | 1011.3 |
| 20260903122042 | 76 | 75 | 1.0 | 3.0 | 0.00 | 0.00 | 0.00 | 90 | 1011.2 |
| 20260903121537 | 76 | 164 | 0.0 | 3.0 | 0.00 | 0.00 | 0.00 | 90 | 1011.1 |
| 20260903121033 | 76 | 71 | 1.0 | 3.0 | 0.00 | 0.00 | 0.00 | 90 | 1011.0 |
| 20260903120532 | 76 | 45 | 0.0 | 4.0 | 0.00 | 0.00 | 0.00 | 90 | 1010.9 |
| 20260903120027 | 76 | 104 | 1.0 | 4.0 | 0.00 | 0.00 | 0.00 | 90 | 1011.1 |
| 20260903115525 | 76 | 173 | 2.0 | 5.0 | 0.00 | 0.00 | 0.00 | 90 | 1011.3 |
| 20260903115020 | 76 | 212 | 0.0 | 2.0 | 0.00 | 0.00 | 0.00 | 90 | 1011.1 |
| 20260903114515 | 76 | 147 | 1.0 | 3.0 | 0.00 | 0.00 | 0.00 | 90 | 1011.0 |
| 20260903114011 | 76 | 89 | 2.0 | 5.0 | 0.00 | 0.00 | 0.00 | 90 | 1010.9 |
| 20260903113507 | 76 | 120 | 1.0 | 4.0 | 0.00 | 0.00 | 0.00 | 90 | 1010.9 |
| 20260903113003 | 76 | 30 | 0.0 | 3.0 | 0.00 | 0.00 | 0.00 | 90 | 1010.8 |
| 20260903112458 | 76 | 101 | 0.0 | 4.0 | 0.00 | 0.00 | 0.00 | 90 | 1010.7 |
| 20260903111957 | 76 | 70 | 1.0 | 5.0 | 0.00 | 0.00 | 0.00 | 90 | 1010.8 |
| 20260903111451 | 76 | 136 | 1.0 | 4.0 | 0.00 | 0.00 | 0.00 | 90 | 1010.8 |
| 20260903110948 | 76 | 80 | 1.0 | 5.0 | 0.00 | 0.00 | 0.00 | 90 | 1010.8 |
| 20260903110443 | 76 | 145 | 2.0 | 4.0 | 0.00 | 0.00 | 0.00 | 90 | 1010.9 |
| 20260903105937 | 76 | 89 | 2.0 | 3.0 | 0.00 | 0.00 | 0.00 | 89 | 1010.8 |
| 20260903105433 | 76 | 55 | 0.0 | 5.0 | 0.00 | 0.00 | 0.00 | 89 | 1010.7 |
| 20260903104932 | 76 | 112 | 1.0 | 5.0 | 0.00 | 0.00 | 0.00 | 89 | 1010.6 |
| 20260903104432 | 76 | 111 | 2.0 | 3.0 | 0.00 | 0.00 | 0.00 | 89 | 1010.6 |
| 20260903103929 | 76 | 108 | 1.0 | 5.0 | 0.00 | 0.00 | 0.00 | 89 | 1010.9 |
| 20260903103425 | 76 | 89 | 0.0 | 6.0 | 0.00 | 0.00 | 0.00 | 89 | 1010.6 |
| 20260903102920 | 76 | 11 | 0.0 | 4.0 | 0.00 | 0.00 | 0.00 | 88 | 1010.8 |
| 20260903102415 | 76 | 131 | 1.0 | 4.0 | 0.00 | 0.00 | 0.00 | 88 | 1010.8 |
| 20260903101914 | 77 | 108 | 1.0 | 6.0 | 0.00 | 0.00 | 0.00 | 88 | 1010.8 |
| 20260903101409 | 77 | 45 | 0.0 | 4.0 | 0.00 | 0.00 | 0.00 | 88 | 1010.9 |
| 20260903100904 | 77 | 50 | 0.0 | 4.0 | 0.00 | 0.00 | 0.00 | 87 | 1010.6 |
| 20260903100400 | 77 | 129 | 3.0 | 4.0 | 0.00 | 0.00 | 0.00 | 87 | 1010.8 |
| 20260903095856 | 77 | 15 | 0.0 | 6.0 | 0.00 | 0.00 | 0.00 | 87 | 1010.7 |
| 20260903095350 | 77 | 124 | 2.0 | 5.0 | 0.00 | 0.00 | 0.00 | 87 | 1010.6 |
| 20260903094845 | 77 | 130 | 2.0 | 3.0 | 0.00 | 0.00 | 0.00 | 87 | 1010.8 |
| 20260903094339 | 77 | 31 | 0.0 | 5.0 | 0.00 | 0.00 | 0.00 | 86 | 1010.9 |
| 20260903093836 | 77 | 69 | 2.0 | 4.0 | 0.00 | 0.00 | 0.00 | 86 | 1010.6 |
| 20260903093330 | 77 | 128 | 1.0 | 3.0 | 0.00 | 0.00 | 0.00 | 86 | 1010.7 |
| 20260903092826 | 77 | 104 | 0.0 | 3.0 | 0.00 | 0.00 | 0.00 | 86 | 1010.5 |
| 20260903092321 | 77 | 138 | 1.0 | 4.0 | 0.00 | 0.00 | 0.00 | 86 | 1010.6 |
| 20260903091819 | 77 | 139 | 0.0 | 2.0 | 0.00 | 0.00 | 0.00 | 86 | 1010.8 |
| 20260903091313 | 77 | 123 | 1.0 | 2.0 | 0.00 | 0.00 | 0.00 | 86 | 1010.7 |
| 20260903090809 | 77 | 185 | 0.0 | 2.0 | 0.00 | 0.00 | 0.00 | 86 | 1010.4 |
| 20260903090309 | 77 | 148 | 0.0 | 3.0 | 0.00 | 0.00 | 0.00 | 86 | 1010.7 |
| 20260903085807 | 77 | 60 | 0.0 | 2.0 | 0.00 | 0.00 | 0.00 | 86 | 1010.7 |
| 20260903085305 | 77 | 106 | 0.0 | 2.0 | 0.00 | 0.00 | 0.00 | 85 | 1010.5 |
| 20260903084800 | 77 | 106 | 0.0 | 0.0 | 0.00 | 0.00 | 0.00 | 85 | 1010.5 |
| 20260903084254 | 77 | 75 | 0.0 | 2.0 | 0.00 | 0.00 | 0.00 | 85 | 1010.6 |
| 20260903083750 | 77 | 112 | 1.0 | 2.0 | 0.00 | 0.00 | 0.00 | 85 | 1010.6 |
| 20260903083245 | 77 | 65 | 0.0 | 2.0 | 0.00 | 0.00 | 0.00 | 85 | 1010.7 |
| 20260903082744 | 77 | 111 | 0.0 | 2.0 | 0.00 | 0.00 | 0.00 | 85 | 1010.6 |
| 20260903082240 | 77 | 40 | 1.0 | 3.0 | 0.00 | 0.00 | 0.00 | 85 | 1010.7 |
| 20260903081739 | 77 | 92 | 2.0 | 3.0 | 0.00 | 0.00 | 0.00 | 85 | 1010.7 |
| 20260903081236 | 77 | 83 | 2.0 | 2.0 | 0.00 | 0.00 | 0.00 | 85 | 1010.8 |
| 20260903080732 | 78 | 76 | 1.0 | 2.0 | 0.00 | 0.00 | 0.00 | 84 | 1010.8 |
| 20260903080229 | 78 | 80 | 2.0 | 2.0 | 0.00 | 0.00 | 0.00 | 84 | 1010.5 |
| 20260903075728 | 78 | 89 | 1.0 | 2.0 | 0.00 | 0.00 | 0.00 | 84 | 1010.7 |
| 20260903075223 | 78 | 88 | 0.0 | 2.0 | 0.00 | 0.00 | 0.00 | 84 | 1010.7 |
| 20260903074722 | 78 | 41 | 0.0 | 2.0 | 0.00 | 0.00 | 0.00 | 84 | 1010.8 |
| 20260903074218 | 78 | 232 | 0.0 | 2.0 | 0.00 | 0.00 | 0.00 | 83 | 1010.8 |
| 20260903073713 | 78 | 145 | 0.0 | 2.0 | 0.00 | 0.00 | 0.00 | 83 | 1010.8 |
| 20260903073208 | 78 | 212 | 0.0 | 1.0 | 0.00 | 0.00 | 0.00 | 83 | 1010.8 |
| 20260903072704 | 78 | 299 | 0.0 | 1.0 | 0.00 | 0.00 | 0.00 | 83 | 1010.8 |
| 20260903072201 | 78 | 119 | 1.0 | 2.0 | 0.00 | 0.00 | 0.00 | 82 | 1010.9 |
| 20260903071656 | 78 | 326 | 0.0 | 3.0 | 0.00 | 0.00 | 0.00 | 82 | 1011.0 |
| 20260903071151 | 78 | 169 | 0.0 | 2.0 | 0.00 | 0.00 | 0.00 | 82 | 1010.8 |
| 20260903070646 | 79 | 149 | 0.0 | 2.0 | 0.00 | 0.00 | 0.00 | 82 | 1011.1 |
| 20260903070142 | 79 | 299 | 0.0 | 0.0 | 0.00 | 0.00 | 0.00 | 81 | 1011.1 |
| 20260903065641 | 79 | 297 | 0.0 | 2.0 | 0.00 | 0.00 | 0.00 | 81 | 1010.9 |
| 20260903065135 | 79 | 142 | 0.0 | 2.0 | 0.00 | 0.00 | 0.00 | 80 | 1011.2 |
| 20260903064630 | 80 | 119 | 0.0 | 2.0 | 0.00 | 0.00 | 0.00 | 80 | 1011.0 |
| 20260903064125 | 80 | 166 | 0.0 | 4.0 | 0.00 | 0.00 | 0.00 | 80 | 1011.1 |
| 20260903063621 | 80 | 173 | 2.0 | 5.0 | 0.00 | 0.00 | 0.00 | 79 | 1011.1 |
| 20260903063115 | 80 | 173 | 2.0 | 4.0 | 0.00 | 0.00 | 0.00 | 79 | 1011.1 |
| 20260903062611 | 80 | 141 | 0.0 | 4.0 | 0.00 | 0.00 | 0.00 | 79 | 1011.1 |
| 20260903062106 | 80 | 169 | 0.0 | 5.0 | 0.00 | 0.00 | 0.00 | 78 | 1011.4 |
| 20260903061607 | 80 | 135 | 0.0 | 6.0 | 0.00 | 0.00 | 0.00 | 77 | 1011.3 |
| 20260903061101 | 80 | 133 | 0.0 | 6.0 | 0.00 | 0.00 | 0.00 | 77 | 1011.4 |
| 20260903060601 | 80 | 176 | 0.0 | 5.0 | 0.00 | 0.00 | 0.00 | 77 | 1011.5 |
| 20260903060056 | 81 | 89 | 0.0 | 5.0 | 0.00 | 0.00 | 0.00 | 77 | 1011.4 |
| 20260903055554 | 81 | 107 | 0.0 | 4.0 | 0.00 | 0.00 | 0.00 | 77 | 1011.4 |
| 20260903055052 | 81 | 195 | 0.0 | 6.0 | 0.00 | 0.00 | 0.00 | 77 | 1011.7 |
| 20260903054547 | 81 | 132 | 3.0 | 5.0 | 0.00 | 0.00 | 0.00 | 77 | 1011.4 |
| 20260903054043 | 81 | 180 | 0.0 | 5.0 | 0.00 | 0.00 | 0.00 | 76 | 1011.5 |
| 20260903053538 | 81 | 164 | 2.0 | 6.0 | 0.00 | 0.00 | 0.00 | 76 | 1011.8 |
| 20260903053035 | 81 | 151 | 1.0 | 7.0 | 0.00 | 0.00 | 0.00 | 75 | 1011.5 |
| 20260903052530 | 82 | 130 | 5.0 | 9.0 | 0.00 | 0.00 | 0.00 | 75 | 1011.5 |
| 20260903052026 | 82 | 165 | 2.0 | 6.0 | 0.00 | 0.00 | 0.00 | 75 | 1011.5 |
| 20260903051525 | 82 | 115 | 1.0 | 4.0 | 0.00 | 0.00 | 0.00 | 74 | 1011.8 |
| 20260903051021 | 82 | 140 | 2.0 | 5.0 | 0.00 | 0.00 | 0.00 | 74 | 1011.4 |
| 20260903050520 | 82 | 167 | 3.0 | 5.0 | 0.00 | 0.00 | 0.00 | 73 | 1011.4 |
| 20260903050016 | 82 | 118 | 2.0 | 6.0 | 0.00 | 0.00 | 0.00 | 73 | 1011.7 |
| 20260903045510 | 83 | 125 | 2.0 | 6.0 | 0.00 | 0.00 | 0.00 | 72 | 1011.3 |
| 20260903045007 | 82 | 162 | 3.0 | 6.0 | 0.00 | 0.00 | 0.00 | 73 | 1011.3 |
| 20260903044503 | 83 | 100 | 1.0 | 5.0 | 0.00 | 0.00 | 0.00 | 72 | 1011.4 |
| 20260903043958 | 83 | 41 | 0.0 | 6.0 | 0.00 | 0.00 | 0.00 | 72 | 1011.5 |
| 20260903043454 | 83 | 228 | 0.0 | 5.0 | 0.00 | 0.00 | 0.00 | 71 | 1011.4 |
| 20260903042952 | 83 | 155 | 0.0 | 7.0 | 0.00 | 0.00 | 0.00 | 71 | 1011.4 |
| 20260903042448 | 84 | 98 | 2.0 | 5.0 | 0.00 | 0.00 | 0.00 | 71 | 1011.2 |
| 20260903041943 | 84 | 139 | 2.0 | 6.0 | 0.00 | 0.00 | 0.00 | 71 | 1011.5 |
| 20260903041440 | 84 | 247 | 1.0 | 3.0 | 0.00 | 0.00 | 0.00 | 70 | 1011.3 |
| 20260903040935 | 84 | 176 | 0.0 | 3.0 | 0.00 | 0.00 | 0.00 | 70 | 1011.5 |
| 20260903040434 | 85 | 141 | 2.0 | 9.0 | 0.00 | 0.00 | 0.00 | 69 | 1011.3 |
| 20260903035930 | 85 | 58 | 1.0 | 5.0 | 0.00 | 0.00 | 0.00 | 69 | 1011.3 |
| 20260903035425 | 85 | 154 | 5.0 | 6.0 | 0.00 | 0.00 | 0.00 | 69 | 1011.5 |
| 20260903034920 | 85 | 192 | 1.0 | 4.0 | 0.00 | 0.00 | 0.00 | 69 | 1011.4 |
| 20260903034415 | 85 | 151 | 1.0 | 8.0 | 0.00 | 0.00 | 0.00 | 68 | 1011.5 |
| 20260903033910 | 85 | 166 | 2.0 | 7.0 | 0.00 | 0.00 | 0.00 | 68 | 1011.5 |
| 20260903033406 | 86 | 144 | 3.0 | 5.0 | 0.00 | 0.00 | 0.00 | 67 | 1011.3 |
| 20260903032906 | 86 | 155 | 2.0 | 3.0 | 0.00 | 0.00 | 0.00 | 67 | 1011.1 |
| 20260903032401 | 86 | 145 | 4.0 | 5.0 | 0.00 | 0.00 | 0.00 | 67 | 1011.3 |
| 20260903031856 | 86 | 310 | 0.0 | 8.0 | 0.00 | 0.00 | 0.00 | 66 | 1011.3 |
| 20260903031355 | 86 | 103 | 2.0 | 9.0 | 0.00 | 0.00 | 0.00 | 66 | 1011.3 |
| 20260903030851 | 87 | 160 | 2.0 | 5.0 | 0.00 | 0.00 | 0.00 | 66 | 1011.3 |
| 20260903030347 | 87 | 155 | 4.0 | 7.0 | 0.00 | 0.00 | 0.00 | 65 | 1011.1 |
| 20260903025843 | 87 | 107 | 2.0 | 7.0 | 0.00 | 0.00 | 0.00 | 66 | 1011.2 |
| 20260903025338 | 87 | 118 | 0.0 | 11.0 | 0.00 | 0.00 | 0.00 | 65 | 1011.1 |
| 20260903024837 | 87 | 141 | 3.0 | 7.0 | 0.00 | 0.00 | 0.00 | 65 | 1011.1 |
| 20260903024332 | 87 | 140 | 4.0 | 8.0 | 0.00 | 0.00 | 0.00 | 64 | 1010.9 |
| 20260903023828 | 87 | 174 | 2.0 | 6.0 | 0.00 | 0.00 | 0.00 | 64 | 1010.7 |
| 20260903023323 | 88 | 100 | 4.0 | 7.0 | 0.00 | 0.00 | 0.00 | 63 | 1010.8 |
| 20260903022818 | 88 | 112 | 2.0 | 5.0 | 0.00 | 0.00 | 0.00 | 63 | 1010.5 |
| 20260903022317 | 88 | 195 | 1.0 | 4.0 | 0.00 | 0.00 | 0.00 | 63 | 1010.7 |
| 20260903021811 | 88 | 98 | 4.0 | 5.0 | 0.00 | 0.00 | 0.00 | 62 | 1010.6 |
| 20260903021307 | 88 | 149 | 3.0 | 9.0 | 0.00 | 0.00 | 0.00 | 62 | 1010.3 |
| 20260903020807 | 88 | 115 | 1.0 | 6.0 | 0.00 | 0.00 | 0.00 | 62 | 1010.4 |
| 20260903020301 | 88 | 89 | 0.0 | 4.0 | 0.00 | 0.00 | 0.00 | 61 | 1010.2 |
| 20260903015756 | 89 | 99 | 3.0 | 9.0 | 0.00 | 0.00 | 0.00 | 61 | 1010.4 |
| 20260903015251 | 89 | 162 | 4.0 | 7.0 | 0.00 | 0.00 | 0.00 | 61 | 1010.2 |
| 20260903014747 | 89 | 145 | 4.0 | 7.0 | 0.00 | 0.00 | 0.00 | 61 | 1010.4 |
| 20260903014240 | 89 | 152 | 3.0 | 7.0 | 0.00 | 0.00 | 0.00 | 60 | 1010.0 |
| 20260903013736 | 89 | 155 | 2.0 | 7.0 | 0.00 | 0.00 | 0.00 | 60 | 1010.0 |
| 20260903013235 | 89 | 186 | 1.0 | 12.0 | 0.00 | 0.00 | 0.00 | 59 | 1010.0 |
| 20260903012733 | 89 | 110 | 5.0 | 9.0 | 0.00 | 0.00 | 0.00 | 59 | 1010.0 |
| 20260903012228 | 90 | 130 | 5.0 | 10.0 | 0.00 | 0.00 | 0.00 | 58 | 1009.8 |
| 20260903011728 | 90 | 152 | 5.0 | 8.0 | 0.00 | 0.00 | 0.00 | 58 | 1009.9 |
| 20260903011222 | 90 | 135 | 7.0 | 14.0 | 0.00 | 0.00 | 0.00 | 57 | 1009.7 |
| 20260903010718 | 91 | 146 | 2.0 | 11.0 | 0.00 | 0.00 | 0.00 | 56 | 1010.0 |
| 20260903010218 | 91 | 83 | 5.0 | 12.0 | 0.00 | 0.00 | 0.00 | 55 | 1009.6 |
| 20260903005716 | 91 | 144 | 5.0 | 19.0 | 0.00 | 0.00 | 0.00 | 54 | 1009.8 |
| 20260903005211 | 92 | 138 | 6.0 | 9.0 | 0.00 | 0.00 | 0.00 | 52 | 1009.6 |
| 20260903004707 | 93 | 142 | 3.0 | 9.0 | 0.00 | 0.00 | 0.00 | 50 | 1009.6 |
| 20260903004202 | 93 | 157 | 6.0 | 13.0 | 0.00 | 0.00 | 0.00 | 49 | 1009.7 |
| 20260903003658 | 94 | 102 | 3.0 | 12.0 | 0.00 | 0.00 | 0.00 | 48 | 1009.6 |
| 20260903003153 | 94 | 98 | 8.0 | 12.0 | 0.00 | 0.00 | 0.00 | 47 | 1009.5 |
| 20260903002648 | 94 | 131 | 7.0 | 13.0 | 0.00 | 0.00 | 0.00 | 47 | 1009.4 |
| 20260903002148 | 94 | 108 | 5.0 | 11.0 | 0.00 | 0.00 | 0.00 | 48 | 1009.5 |
| 20260903001643 | 95 | 120 | 3.0 | 13.0 | 0.00 | 0.00 | 0.00 | 48 | 1009.4 |
| 20260903001137 | 95 | 105 | 5.0 | 13.0 | 0.00 | 0.00 | 0.00 | 47 | 1009.5 |
| 20260903000633 | 95 | 112 | 9.0 | 15.0 | 0.00 | 0.00 | 0.00 | 47 | 1009.5 |
| 20260903000132 | 96 | 124 | 5.0 | 13.0 | 0.00 | 0.00 | 0.00 | 46 | 1009.5 |
| 20260902235631 | 96 | 135 | 9.0 | 14.0 | 0.00 | 0.00 | 0.00 | 46 | 1009.5 |
| 20260902235126 | 98 | 75 | 6.0 | 12.0 | 0.00 | 0.00 | 0.00 | 40 | 1009.2 |
| 20260902234620 | 99 | 0 | 3.0 | 5.0 | 0.00 | 0.00 | 0.00 | 39 | 1009.2 |
| 20260902234119 | 99 | 75 | 6.0 | 11.0 | 0.00 | 0.00 | 0.00 | 38 | 1009.2 |
| 20260902233614 | 99 | 76 | 6.0 | 11.0 | 0.00 | 0.00 | 0.00 | 38 | 1009.2 |
| 20260902233108 | 99 | 58 | 5.0 | 11.0 | 0.00 | 0.00 | 0.00 | 37 | 1009.3 |
| 20260902232608 | 99 | 111 | 6.0 | 7.0 | 0.00 | 0.00 | 0.00 | 37 | 1009.4 |
| 20260902232102 | 99 | 102 | 6.0 | 10.0 | 0.00 | 0.00 | 0.00 | 37 | 1009.3 |
| 20260902231556 | 99 | 35 | 4.0 | 11.0 | 0.00 | 0.00 | 0.00 | 38 | 1009.4 |
| 20260902231050 | 100 | 8 | 6.0 | 9.0 | 0.00 | 0.00 | 0.00 | 38 | 1009.0 |
| 20260902230545 | 99 | 351 | 3.0 | 10.0 | 0.00 | 0.00 | 0.00 | 38 | 1009.3 |
| 20260902230044 | 100 | 36 | 9.0 | 13.0 | 0.00 | 0.00 | 0.00 | 38 | 1009.3 |
| 20260902225540 | 99 | 69 | 2.0 | 4.0 | 0.00 | 0.00 | 0.00 | 39 | 1009.2 |
| 20260902225039 | 100 | 30 | 2.0 | 7.0 | 0.00 | 0.00 | 0.00 | 38 | 1009.2 |
| 20260902224538 | 100 | 94 | 4.0 | 9.0 | 0.00 | 0.00 | 0.00 | 37 | 1009.2 |
| 20260902224034 | 99 | 85 | 0.0 | 11.0 | 0.00 | 0.00 | 0.00 | 38 | 1009.3 |
| 20260902223530 | 99 | 68 | 3.0 | 11.0 | 0.00 | 0.00 | 0.00 | 37 | 1009.3 |
| 20260902223029 | 100 | 54 | 8.0 | 12.0 | 0.00 | 0.00 | 0.00 | 37 | 1009.2 |
| 20260902222528 | 99 | 42 | 3.0 | 11.0 | 0.00 | 0.00 | 0.00 | 38 | 1009.2 |
| 20260902222027 | 100 | 55 | 2.0 | 5.0 | 0.00 | 0.00 | 0.00 | 37 | 1009.1 |
| 20260902221521 | 100 | 79 | 4.0 | 11.0 | 0.00 | 0.00 | 0.00 | 37 | 1009.3 |
| 20260902221016 | 100 | 7 | 6.0 | 11.0 | 0.00 | 0.00 | 0.00 | 37 | 1009.5 |
| 20260902220512 | 99 | 29 | 8.0 | 11.0 | 0.00 | 0.00 | 0.00 | 38 | 1009.4 |
| 20260902220006 | 100 | 67 | 9.0 | 10.0 | 0.00 | 0.00 | 0.00 | 38 | 1009.5 |
| 20260902215502 | 100 | 1 | 3.0 | 10.0 | 0.00 | 0.00 | 0.00 | 38 | 1009.5 |
| 20260902214957 | 100 | 61 | 2.0 | 10.0 | 0.00 | 0.00 | 0.00 | 39 | 1009.5 |
| 20260902214456 | 100 | 71 | 3.0 | 8.0 | 0.00 | 0.00 | 0.00 | 38 | 1009.6 |
| 20260902213955 | 100 | 17 | 3.0 | 13.0 | 0.00 | 0.00 | 0.00 | 38 | 1009.6 |
| 20260902213452 | 101 | 35 | 5.0 | 7.0 | 0.00 | 0.00 | 0.00 | 37 | 1009.7 |
| 20260902212951 | 100 | 131 | 3.0 | 10.0 | 0.00 | 0.00 | 0.00 | 38 | 1009.6 |
| 20260902212447 | 100 | 7 | 6.0 | 10.0 | 0.00 | 0.00 | 0.00 | 38 | 1009.5 |
| 20260902211943 | 99 | 339 | 2.0 | 4.0 | 0.00 | 0.00 | 0.00 | 40 | 1009.8 |
| 20260902211439 | 99 | 4 | 4.0 | 15.0 | 0.00 | 0.00 | 0.00 | 40 | 1009.9 |
| 20260902210933 | 100 | 81 | 5.0 | 13.0 | 0.00 | 0.00 | 0.00 | 39 | 1009.9 |
| 20260902210428 | 101 | 41 | 6.0 | 8.0 | 0.00 | 0.00 | 0.00 | 39 | 1010.0 |
| 20260902205921 | 100 | 86 | 3.0 | 8.0 | 0.00 | 0.00 | 0.00 | 39 | 1010.0 |
| 20260902205415 | 99 | 84 | 5.0 | 8.0 | 0.00 | 0.00 | 0.00 | 40 | 1010.0 |
| 20260902204906 | 99 | 37 | 5.0 | 11.0 | 0.00 | 0.00 | 0.00 | 40 | 1010.1 |
| 20260902204405 | 99 | 29 | 1.0 | 7.0 | 0.00 | 0.00 | 0.00 | 40 | 1010.1 |
| 20260902203901 | 99 | 32 | 9.0 | 11.0 | 0.00 | 0.00 | 0.00 | 39 | 1010.2 |
| 20260902203356 | 100 | 351 | 4.0 | 9.0 | 0.00 | 0.00 | 0.00 | 39 | 1010.4 |
| 20260902202850 | 99 | 30 | 5.0 | 13.0 | 0.00 | 0.00 | 0.00 | 38 | 1010.2 |
| 20260902202346 | 99 | 15 | 7.0 | 9.0 | 0.00 | 0.00 | 0.00 | 38 | 1010.5 |
| 20260902201843 | 99 | 54 | 4.0 | 14.0 | 0.00 | 0.00 | 0.00 | 38 | 1010.3 |
| 20260902201342 | 100 | 314 | 4.0 | 5.0 | 0.00 | 0.00 | 0.00 | 38 | 1010.5 |
| 20260902200837 | 100 | 343 | 4.0 | 7.0 | 0.00 | 0.00 | 0.00 | 39 | 1010.6 |
| 20260902200332 | 99 | 347 | 9.0 | 9.0 | 0.00 | 0.00 | 0.00 | 39 | 1010.6 |
| 20260902195828 | 99 | 297 | 4.0 | 10.0 | 0.00 | 0.00 | 0.00 | 40 | 1010.5 |
| 20260902195327 | 99 | 331 | 3.0 | 13.0 | 0.00 | 0.00 | 0.00 | 41 | 1010.5 |
| 20260902194822 | 98 | 20 | 3.0 | 8.0 | 0.00 | 0.00 | 0.00 | 41 | 1010.9 |
| 20260902194317 | 98 | 61 | 4.0 | 9.0 | 0.00 | 0.00 | 0.00 | 41 | 1011.0 |
| 20260902193812 | 99 | 343 | 5.0 | 9.0 | 0.00 | 0.00 | 0.00 | 39 | 1011.2 |
| 20260902193308 | 98 | 41 | 5.0 | 16.0 | 0.00 | 0.00 | 0.00 | 40 | 1011.0 |
| 20260902192807 | 98 | 259 | 2.0 | 9.0 | 0.00 | 0.00 | 0.00 | 40 | 1011.4 |
| 20260902192307 | 98 | 337 | 5.0 | 12.0 | 0.00 | 0.00 | 0.00 | 40 | 1011.3 |
| 20260902191805 | 97 | 96 | 5.0 | 12.0 | 0.00 | 0.00 | 0.00 | 41 | 1011.7 |
| 20260902191300 | 99 | 7 | 6.0 | 14.0 | 0.00 | 0.00 | 0.00 | 39 | 1011.4 |
| 20260902190756 | 98 | 38 | 12.0 | 12.0 | 0.00 | 0.00 | 0.00 | 41 | 1011.5 |
| 20260902190255 | 99 | 108 | 2.0 | 8.0 | 0.00 | 0.00 | 0.00 | 40 | 1011.4 |
| 20260902185751 | 98 | 336 | 3.0 | 11.0 | 0.00 | 0.00 | 0.00 | 41 | 1011.4 |
| 20260902185246 | 98 | 272 | 0.0 | 6.0 | 0.00 | 0.00 | 0.00 | 41 | 1011.8 |
| 20260902184743 | 98 | 75 | 6.0 | 11.0 | 0.00 | 0.00 | 0.00 | 40 | 1012.0 |
| 20260902184242 | 99 | 68 | 4.0 | 6.0 | 0.00 | 0.00 | 0.00 | 40 | 1012.0 |
| 20260902183738 | 98 | 50 | 7.0 | 11.0 | 0.00 | 0.00 | 0.00 | 42 | 1012.0 |
| 20260902183234 | 97 | 33 | 10.0 | 13.0 | 0.00 | 0.00 | 0.00 | 42 | 1012.1 |
| 20260902182730 | 96 | 280 | 4.0 | 12.0 | 0.00 | 0.00 | 0.00 | 43 | 1012.0 |
| 20260902182227 | 97 | 324 | 4.0 | 6.0 | 0.00 | 0.00 | 0.00 | 42 | 1012.2 |
| 20260902181723 | 97 | 7 | 4.0 | 8.0 | 0.00 | 0.00 | 0.00 | 42 | 1012.4 |
| 20260902181222 | 97 | 29 | 6.0 | 11.0 | 0.00 | 0.00 | 0.00 | 43 | 1012.5 |
| 20260902180717 | 97 | 101 | 5.0 | 10.0 | 0.00 | 0.00 | 0.00 | 43 | 1012.5 |
| 20260902180213 | 98 | 319 | 4.0 | 5.0 | 0.00 | 0.00 | 0.00 | 41 | 1012.8 |
| 20260902175708 | 96 | 19 | 7.0 | 12.0 | 0.00 | 0.00 | 0.00 | 44 | 1012.8 |
| 20260902175204 | 97 | 58 | 5.0 | 9.0 | 0.00 | 0.00 | 0.00 | 44 | 1012.9 |
| 20260902174659 | 96 | 310 | 3.0 | 5.0 | 0.00 | 0.00 | 0.00 | 45 | 1013.0 |
| 20260902174155 | 96 | 20 | 5.0 | 11.0 | 0.00 | 0.00 | 0.00 | 45 | 1013.1 |
| 20260902173650 | 96 | 33 | 3.0 | 8.0 | 0.00 | 0.00 | 0.00 | 45 | 1013.0 |
| 20260902173145 | 96 | 150 | 3.0 | 9.0 | 0.00 | 0.00 | 0.00 | 45 | 1012.9 |
| 20260902172639 | 96 | 89 | 4.0 | 10.0 | 0.00 | 0.00 | 0.00 | 45 | 1013.2 |
| 20260902172138 | 96 | 129 | 2.0 | 9.0 | 0.00 | 0.00 | 0.00 | 45 | 1013.3 |
| 20260902171634 | 96 | 285 | 2.0 | 9.0 | 0.00 | 0.00 | 0.00 | 45 | 1013.4 |
| 20260902171130 | 96 | 94 | 6.0 | 7.0 | 0.00 | 0.00 | 0.00 | 46 | 1013.2 |
| 20260902170625 | 96 | 83 | 5.0 | 5.0 | 0.00 | 0.00 | 0.00 | 45 | 1013.4 |
| 20260902170121 | 96 | 91 | 3.0 | 6.0 | 0.00 | 0.00 | 0.00 | 46 | 1013.6 |
| 20260902165621 | 95 | 357 | 2.0 | 7.0 | 0.00 | 0.00 | 0.00 | 48 | 1013.5 |
| 20260902165115 | 95 | 136 | 1.0 | 7.0 | 0.00 | 0.00 | 0.00 | 48 | 1013.7 |
| 20260902164610 | 95 | 165 | 5.0 | 5.0 | 0.00 | 0.00 | 0.00 | 48 | 1013.7 |
| 20260902164109 | 96 | 50 | 5.0 | 8.0 | 0.00 | 0.00 | 0.00 | 47 | 1013.8 |
| 20260902163605 | 95 | 205 | 1.0 | 3.0 | 0.00 | 0.00 | 0.00 | 47 | 1013.7 |
| 20260902163103 | 94 | 247 | 2.0 | 5.0 | 0.00 | 0.00 | 0.00 | 48 | 1013.7 |
| 20260902162603 | 94 | 322 | 1.0 | 3.0 | 0.00 | 0.00 | 0.00 | 47 | 1013.9 |
| 20260902162058 | 94 | 58 | 3.0 | 5.0 | 0.00 | 0.00 | 0.00 | 48 | 1013.8 |
| 20260902161552 | 93 | 26 | 4.0 | 7.0 | 0.00 | 0.00 | 0.00 | 51 | 1014.0 |
| 20260902161048 | 93 | 300 | 2.0 | 6.0 | 0.00 | 0.00 | 0.00 | 51 | 1013.9 |
| 20260902160544 | 93 | 170 | 3.0 | 6.0 | 0.00 | 0.00 | 0.00 | 53 | 1013.7 |
| 20260902160039 | 93 | 166 | 2.0 | 6.0 | 0.00 | 0.00 | 0.00 | 53 | 1013.8 |
| 20260902155532 | 93 | 48 | 3.0 | 4.0 | 0.00 | 0.00 | 0.00 | 53 | 1014.0 |
| 20260902155031 | 93 | 42 | 3.0 | 8.0 | 0.00 | 0.00 | 0.00 | 54 | 1014.0 |
| 20260902154527 | 92 | 158 | 1.0 | 3.0 | 0.00 | 0.00 | 0.00 | 55 | 1013.9 |
| 20260902154021 | 92 | 241 | 0.0 | 5.0 | 0.00 | 0.00 | 0.00 | 56 | 1014.0 |
| 20260902153520 | 92 | 321 | 3.0 | 7.0 | 0.00 | 0.00 | 0.00 | 56 | 1013.9 |
| 20260902153015 | 91 | 321 | 2.0 | 6.0 | 0.00 | 0.00 | 0.00 | 58 | 1013.9 |
| 20260902152512 | 92 | 316 | 3.0 | 5.0 | 0.00 | 0.00 | 0.00 | 57 | 1014.1 |
| 20260902152007 | 91 | 134 | 3.0 | 5.0 | 0.00 | 0.00 | 0.00 | 58 | 1014.2 |
| 20260902151503 | 90 | 164 | 5.0 | 7.0 | 0.00 | 0.00 | 0.00 | 59 | 1014.0 |
| 20260902150956 | 90 | 123 | 3.0 | 6.0 | 0.00 | 0.00 | 0.00 | 59 | 1014.1 |
| 20260902150452 | 89 | 124 | 1.0 | 3.0 | 0.00 | 0.00 | 0.00 | 60 | 1014.0 |
| 20260902145952 | 90 | 167 | 4.0 | 5.0 | 0.00 | 0.00 | 0.00 | 60 | 1013.8 |
| 20260902145447 | 89 | 71 | 3.0 | 6.0 | 0.00 | 0.00 | 0.00 | 60 | 1014.0 |
| 20260902144942 | 90 | 28 | 3.0 | 4.0 | 0.00 | 0.00 | 0.00 | 60 | 1014.0 |
| 20260902144438 | 89 | 156 | 2.0 | 4.0 | 0.00 | 0.00 | 0.00 | 63 | 1013.8 |
| 20260902143937 | 88 | 154 | 0.0 | 5.0 | 0.00 | 0.00 | 0.00 | 63 | 1013.8 |
| 20260902143433 | 88 | 262 | 1.0 | 5.0 | 0.00 | 0.00 | 0.00 | 64 | 1014.0 |
| 20260902142928 | 87 | 101 | 1.0 | 6.0 | 0.00 | 0.00 | 0.00 | 65 | 1014.0 |
| 20260902142419 | 87 | 77 | 3.0 | 4.0 | 0.00 | 0.00 | 0.00 | 65 | 1014.0 |
| 20260902141914 | 87 | 124 | 3.0 | 5.0 | 0.00 | 0.00 | 0.00 | 66 | 1014.0 |
| 20260902141409 | 86 | 115 | 2.0 | 5.0 | 0.00 | 0.00 | 0.00 | 68 | 1013.8 |
| 20260902140908 | 85 | 93 | 4.0 | 8.0 | 0.00 | 0.00 | 0.00 | 69 | 1013.9 |
| 20260902140404 | 86 | 57 | 2.0 | 3.0 | 0.00 | 0.00 | 0.00 | 68 | 1014.0 |
| 20260902135858 | 86 | 156 | 0.0 | 4.0 | 0.00 | 0.00 | 0.00 | 68 | 1014.0 |
| 20260902135354 | 85 | 215 | 0.0 | 4.0 | 0.00 | 0.00 | 0.00 | 70 | 1013.9 |
| 20260902134853 | 85 | 135 | 4.0 | 5.0 | 0.00 | 0.00 | 0.00 | 70 | 1014.1 |
| 20260902134349 | 83 | 138 | 1.0 | 8.0 | 0.00 | 0.00 | 0.00 | 72 | 1014.1 |
| 20260902133843 | 84 | 106 | 4.0 | 7.0 | 0.00 | 0.00 | 0.00 | 72 | 1014.0 |